| time (UTC) | temp C | wind direction | speed KPH | gust KPH | rain 1hr cm | rain 24hr cm | rain mn cm | humidity % | barometer mb |
| 20260505011303 | 23 | 198 | 0.0 | 1.6 | 0.00 | 0.00 | 0.00 | 58 | 1000.0 |
| 20260505010303 | 23 | 198 | 0.0 | 1.6 | 0.00 | 0.00 | 0.00 | 56 | 1000.0 |
| 20260505003803 | 25 | 145 | 0.0 | 0.0 | 0.00 | 0.00 | 0.00 | 54 | 999.8 |
| 20260505003303 | 25 | 128 | 0.0 | 1.6 | 0.00 | 0.00 | 0.00 | 53 | 999.7 |
| 20260505001803 | 25 | 223 | 0.0 | 0.0 | 0.00 | 0.00 | 0.00 | 52 | 999.8 |
| 20260505001303 | 25 | 221 | 0.0 | 0.0 | 0.00 | 0.00 | 0.00 | 52 | 999.8 |
| 20260504234803 | 26 | 218 | 0.0 | 1.6 | 0.00 | 0.00 | 0.00 | 50 | 999.5 |
| 20260504234303 | 26 | 182 | 0.0 | 0.0 | 0.00 | 0.00 | 0.00 | 50 | 999.5 |
| 20260504233804 | 26 | 172 | 0.0 | 4.8 | 0.00 | 0.00 | 0.00 | 49 | 999.5 |
| 20260504233303 | 26 | 189 | 0.0 | 8.0 | 0.00 | 0.00 | 0.00 | 50 | 999.5 |
| 20260504231803 | 26 | 211 | 0.0 | 3.2 | 0.00 | 0.00 | 0.00 | 49 | 999.5 |
| 20260504231303 | 26 | 185 | 0.0 | 0.0 | 0.00 | 0.00 | 0.00 | 49 | 999.6 |
| 20260504230303 | 26 | 195 | 0.0 | 9.7 | 0.00 | 0.00 | 0.00 | 48 | 999.5 |
| 20260504223803 | 27 | 184 | 1.6 | 9.7 | 0.00 | 0.00 | 0.00 | 47 | 999.5 |
| 20260504223303 | 27 | 196 | 0.0 | 8.0 | 0.00 | 0.00 | 0.00 | 47 | 999.5 |
| 20260504221803 | 27 | 215 | 0.0 | 0.0 | 0.00 | 0.00 | 0.00 | 49 | 999.5 |
| 20260504221303 | 27 | 196 | 0.0 | 0.0 | 0.00 | 0.00 | 0.00 | 48 | 999.5 |
| 20260504220804 | 27 | 188 | 0.0 | 0.0 | 0.00 | 0.00 | 0.00 | 48 | 999.6 |
| 20260504214803 | 27 | 225 | 0.0 | 4.8 | 0.00 | 0.00 | 0.00 | 48 | 999.6 |
| 20260504214303 | 27 | 200 | 1.6 | 16.1 | 0.00 | 0.00 | 0.00 | 47 | 999.7 |
| 20260504213803 | 27 | 181 | 3.2 | 12.9 | 0.00 | 0.00 | 0.00 | 48 | 999.6 |
| 20260504213303 | 27 | 193 | 1.6 | 12.9 | 0.00 | 0.00 | 0.00 | 48 | 999.7 |
| 20260504211804 | 27 | 203 | 1.6 | 12.9 | 0.00 | 0.00 | 0.00 | 48 | 999.8 |
| 20260504210804 | 27 | 209 | 0.0 | 4.8 | 0.00 | 0.00 | 0.00 | 48 | 999.8 |
| 20260504210304 | 27 | 203 | 0.0 | 8.0 | 0.00 | 0.00 | 0.00 | 49 | 999.9 |
| 20260504204803 | 26 | 191 | 0.0 | 9.7 | 0.00 | 0.00 | 0.00 | 48 | 1000.0 |
| 20260504203804 | 26 | 218 | 0.0 | 0.0 | 0.00 | 0.00 | 0.00 | 49 | 1000.0 |
| 20260504201803 | 27 | 194 | 1.6 | 8.0 | 0.00 | 0.00 | 0.00 | 47 | 1000.2 |
| 20260504201303 | 27 | 214 | 1.6 | 8.0 | 0.00 | 0.00 | 0.00 | 48 | 1000.2 |
| 20260504200803 | 27 | 208 | 0.0 | 1.6 | 0.00 | 0.00 | 0.00 | 48 | 1000.3 |
| 20260504200303 | 27 | 225 | 0.0 | 8.0 | 0.00 | 0.00 | 0.00 | 49 | 1000.3 |
| 20260504194803 | 27 | 200 | 1.6 | 9.7 | 0.00 | 0.00 | 0.00 | 47 | 1000.5 |
| 20260504194303 | 27 | 180 | 0.0 | 1.6 | 0.00 | 0.00 | 0.00 | 47 | 1000.6 |
| 20260504193804 | 27 | 207 | 0.0 | 4.8 | 0.00 | 0.00 | 0.00 | 47 | 1000.7 |
| 20260504193304 | 27 | 213 | 0.0 | 9.7 | 0.00 | 0.00 | 0.00 | 46 | 1000.8 |
| 20260504191803 | 27 | 210 | 0.0 | 4.8 | 0.00 | 0.00 | 0.00 | 48 | 1000.9 |
| 20260504191303 | 26 | 206 | 0.0 | 4.8 | 0.00 | 0.00 | 0.00 | 48 | 1000.9 |
| 20260504190803 | 26 | 191 | 1.6 | 9.7 | 0.00 | 0.00 | 0.00 | 46 | 1000.9 |
| 20260504190303 | 26 | 191 | 0.0 | 11.3 | 0.00 | 0.00 | 0.00 | 50 | 1000.9 |
| 20260504184803 | 27 | 204 | 0.0 | 8.0 | 0.00 | 0.00 | 0.00 | 48 | 1001.2 |
| 20260504184303 | 27 | 213 | 0.0 | 4.8 | 0.00 | 0.00 | 0.00 | 50 | 1001.2 |
| 20260504183803 | 27 | 212 | 0.0 | 4.8 | 0.00 | 0.00 | 0.00 | 50 | 1001.2 |
| 20260504183304 | 26 | 188 | 0.0 | 12.9 | 0.00 | 0.00 | 0.00 | 54 | 1001.2 |
| 20260504181804 | 25 | 171 | 0.0 | 1.6 | 0.00 | 0.00 | 0.00 | 52 | 1001.3 |
| 20260504181304 | 25 | 164 | 0.0 | 0.0 | 0.00 | 0.00 | 0.00 | 56 | 1001.4 |
| 20260504180803 | 25 | 180 | 0.0 | 0.0 | 0.00 | 0.00 | 0.00 | 58 | 1001.5 |
| 20260504180303 | 24 | 161 | 0.0 | 1.6 | 0.00 | 0.00 | 0.00 | 58 | 1001.6 |
| 20260504174803 | 23 | 145 | 0.0 | 0.0 | 0.00 | 0.00 | 0.00 | 66 | 1001.9 |
| 20260504174303 | 22 | 153 | 0.0 | 1.6 | 0.00 | 0.00 | 0.00 | 67 | 1001.8 |
| 20260504173803 | 21 | 252 | 0.0 | 0.0 | 0.00 | 0.00 | 0.00 | 79 | 1001.9 |
| 20260504173303 | 20 | 208 | 0.0 | 3.2 | 0.00 | 0.00 | 0.00 | 84 | 1001.9 |
| 20260504171303 | 19 | 140 | 0.0 | 0.0 | 0.00 | 0.00 | 0.00 | 71 | 1001.9 |
| 20260504170803 | 19 | 198 | 0.0 | 0.0 | 0.00 | 0.00 | 0.00 | 74 | 1002.4 |
| 20260504170303 | 20 | 198 | 0.0 | 0.0 | 0.00 | 0.00 | 0.00 | 76 | 1002.4 |
| 20260504150803 | 18 | 173 | 0.0 | 4.8 | 0.00 | 0.00 | 0.00 | 69 | 1002.8 |
| 20260504150303 | 18 | 166 | 0.0 | 1.6 | 0.00 | 0.00 | 0.00 | 72 | 1002.9 |
| 20260504141302 | 15 | 155 | 0.0 | 0.0 | 0.00 | 0.00 | 0.00 | 80 | 1003.4 |
| 20260504140802 | 15 | 155 | 0.0 | 0.0 | 0.00 | 0.00 | 0.00 | 84 | 1003.4 |
| 20260504130302 | 15 | 158 | 0.0 | 0.0 | 0.00 | 0.00 | 0.00 | 79 | 1004.0 |
| 20260504120303 | 11 | 170 | 0.0 | 0.0 | 0.00 | 0.00 | 0.00 | 88 | 1004.6 |
| 20260504110302 | 12 | 170 | 0.0 | 0.0 | 0.00 | 0.00 | 0.00 | 85 | 1004.8 |
| 20260504081802 | 13 | 170 | 0.0 | 0.0 | 0.00 | 0.00 | 0.00 | 83 | 1005.4 |
| 20260504081303 | 13 | 170 | 0.0 | 0.0 | 0.00 | 0.00 | 0.00 | 83 | 1005.4 |
| 20260504080802 | 13 | 170 | 0.0 | 0.0 | 0.00 | 0.00 | 0.00 | 83 | 1005.5 |
| 20260504080303 | 13 | 170 | 0.0 | 0.0 | 0.00 | 0.00 | 0.00 | 84 | 1005.5 |
| 20260504070303 | 13 | 170 | 0.0 | 0.0 | 0.00 | 0.00 | 0.00 | 85 | 1005.6 |
| 20260504050302 | 14 | 170 | 0.0 | 0.0 | 0.00 | 0.00 | 0.00 | 79 | 1006.2 |
| 20260504044803 | 15 | 170 | 0.0 | 0.0 | 0.00 | 0.00 | 0.00 | 78 | 1006.5 |
| 20260504044303 | 15 | 170 | 0.0 | 0.0 | 0.00 | 0.00 | 0.00 | 77 | 1006.4 |
| 20260504043302 | 15 | 170 | 0.0 | 0.0 | 0.00 | 0.00 | 0.00 | 76 | 1006.5 |
| 20260504041303 | 16 | 170 | 0.0 | 0.0 | 0.00 | 0.00 | 0.00 | 75 | 1006.7 |
| 20260504040802 | 16 | 170 | 0.0 | 0.0 | 0.00 | 0.00 | 0.00 | 75 | 1006.9 |
| 20260504040302 | 16 | 170 | 0.0 | 0.0 | 0.00 | 0.00 | 0.00 | 76 | 1006.9 |
| 20260504034803 | 16 | 170 | 0.0 | 0.0 | 0.00 | 0.00 | 0.00 | 75 | 1007.0 |
| 20260504034303 | 16 | 170 | 0.0 | 0.0 | 0.00 | 0.00 | 0.00 | 75 | 1007.0 |
| 20260504033802 | 16 | 170 | 0.0 | 0.0 | 0.00 | 0.00 | 0.00 | 76 | 1006.9 |
| 20260504033302 | 16 | 170 | 0.0 | 0.0 | 0.00 | 0.00 | 0.00 | 74 | 1006.9 |
| 20260504031802 | 16 | 170 | 0.0 | 0.0 | 0.00 | 0.00 | 0.00 | 72 | 1006.9 |
| 20260504031302 | 16 | 170 | 0.0 | 0.0 | 0.00 | 0.00 | 0.00 | 70 | 1006.9 |
| 20260504030803 | 17 | 170 | 0.0 | 0.0 | 0.00 | 0.00 | 0.00 | 71 | 1007.0 |
| 20260504030303 | 17 | 170 | 0.0 | 0.0 | 0.00 | 0.00 | 0.00 | 69 | 1007.0 |
| 20260504024802 | 17 | 170 | 0.0 | 0.0 | 0.00 | 0.00 | 0.00 | 69 | 1006.9 |
| 20260504024302 | 17 | 170 | 0.0 | 0.0 | 0.00 | 0.00 | 0.00 | 69 | 1006.9 |
| 20260504023802 | 18 | 170 | 0.0 | 0.0 | 0.00 | 0.00 | 0.00 | 68 | 1006.9 |
| 20260504023302 | 18 | 170 | 0.0 | 0.0 | 0.00 | 0.00 | 0.00 | 68 | 1006.9 |
| 20260504021803 | 18 | 170 | 0.0 | 0.0 | 0.00 | 0.00 | 0.00 | 65 | 1006.8 |
| 20260504021303 | 18 | 170 | 0.0 | 0.0 | 0.00 | 0.00 | 0.00 | 65 | 1006.8 |
| 20260504020803 | 18 | 170 | 0.0 | 0.0 | 0.00 | 0.00 | 0.00 | 66 | 1006.6 |
| 20260504020303 | 18 | 170 | 0.0 | 0.0 | 0.00 | 0.00 | 0.00 | 63 | 1006.5 |
| 20260504014802 | 19 | 170 | 0.0 | 0.0 | 0.00 | 0.00 | 0.00 | 61 | 1006.6 |
| 20260504014303 | 19 | 170 | 0.0 | 0.0 | 0.00 | 0.00 | 0.00 | 61 | 1006.6 |
| 20260504013803 | 19 | 170 | 0.0 | 0.0 | 0.00 | 0.00 | 0.00 | 60 | 1006.6 |
| 20260504013303 | 20 | 170 | 0.0 | 0.0 | 0.00 | 0.00 | 0.00 | 60 | 1006.5 |